owner,sensor,date,latitude,longitude,vertical_datum,mass_concentration_of_oxygen_in_sea_water,qcFlag 
SCCF RECON,ioos:station:SCCF:53:1,2009-05-01T00:00:00Z,26.6493,-81.8810,2.45,6.19,1111122 
SCCF RECON,ioos:station:SCCF:53:1,2009-05-01T01:00:00Z,26.6493,-81.8810,2.44,6.31,1111122 
SCCF RECON,ioos:station:SCCF:53:1,2009-05-01T02:00:00Z,26.6493,-81.8810,2.39,5.93,1111122 
SCCF RECON,ioos:station:SCCF:53:1,2009-05-01T03:00:00Z,26.6493,-81.8810,2.344,5.78,1111122 
SCCF RECON,ioos:station:SCCF:53:1,2009-05-01T04:00:00Z,26.6493,-81.8810,2.29,5.7,1111122 
SCCF RECON,ioos:station:SCCF:53:1,2009-05-01T05:00:00Z,26.6493,-81.8810,2.23,5.5,1111122 
SCCF RECON,ioos:station:SCCF:53:1,2009-05-01T06:00:00Z,26.6493,-81.8810,2.17,5.42,1111122 
SCCF RECON,ioos:station:SCCF:53:1,2009-05-01T07:00:00Z,26.6493,-81.8810,2.119,5.3,1111122 
SCCF RECON,ioos:station:SCCF:53:1,2009-05-01T08:00:00Z,26.6493,-81.8810,2.06,5.6,1111122 
SCCF RECON,ioos:station:SCCF:53:1,2009-05-01T09:00:00Z,26.6493,-81.8810,2.03,5.67,1111122 
SCCF RECON,ioos:station:SCCF:53:1,2009-05-01T10:00:00Z,26.6493,-81.8810,2.02,5.33,1111122 
SCCF RECON,ioos:station:SCCF:53:1,2009-05-01T11:00:00Z,26.6493,-81.8810,2.03,5.43,1111122 
SCCF RECON,ioos:station:SCCF:53:1,2009-05-01T12:00:00Z,26.6493,-81.8810,2.08,4.83,1111122 
SCCF RECON,ioos:station:SCCF:53:1,2009-05-01T13:00:00Z,26.6493,-81.8810,2.118,5.42,1111122 
SCCF RECON,ioos:station:SCCF:53:1,2009-05-01T14:00:00Z,26.6493,-81.8810,2.16,5.65,1111122 
SCCF RECON,ioos:station:SCCF:53:1,2009-05-01T15:00:00Z,26.6493,-81.8810,2.194,5.56,1111122 
SCCF RECON,ioos:station:SCCF:53:1,2009-05-01T16:00:00Z,26.6493,-81.8810,2.22,5.72,1111122 
SCCF RECON,ioos:station:SCCF:53:1,2009-05-01T17:00:00Z,26.6493,-81.8810,2.228,5.85,1111122 
SCCF RECON,ioos:station:SCCF:53:1,2009-05-01T18:00:00Z,26.6493,-81.8810,2.22,5.93,1111122 
SCCF RECON,ioos:station:SCCF:53:1,2009-05-01T19:00:00Z,26.6493,-81.8810,2.2,5.39,1111122 
SCCF RECON,ioos:station:SCCF:53:1,2009-05-01T20:00:00Z,26.6493,-81.8810,2.213,5.77,1111122 
SCCF RECON,ioos:station:SCCF:53:1,2009-05-01T21:00:00Z,26.6493,-81.8810,2.251,6.69,1111122 
SCCF RECON,ioos:station:SCCF:53:1,2009-05-01T22:00:00Z,26.6493,-81.8810,2.3,6.17,1111122 
SCCF RECON,ioos:station:SCCF:53:1,2009-05-01T23:00:00Z,26.6493,-81.8810,2.34,6.23,1111122 
SCCF RECON,ioos:station:SCCF:53:1,2009-05-02T00:00:00Z,26.6493,-81.8810,2.38,6.05,1111122 
SCCF RECON,ioos:station:SCCF:53:1,2009-05-02T01:00:00Z,26.6493,-81.8810,2.4,6.26,1111122 
SCCF RECON,ioos:station:SCCF:53:1,2009-05-02T02:00:00Z,26.6493,-81.8810,2.4,6.19,1111122 
SCCF RECON,ioos:station:SCCF:53:1,2009-05-02T03:00:00Z,26.6493,-81.8810,2.36,6.7,1111122 
SCCF RECON,ioos:station:SCCF:53:1,2009-05-02T04:00:00Z,26.6493,-81.8810,2.3,5.76,1111122 
SCCF RECON,ioos:station:SCCF:53:1,2009-05-02T05:00:00Z,26.6493,-81.8810,2.25,4.19,1111122 
SCCF RECON,ioos:station:SCCF:53:1,2009-05-02T06:00:00Z,26.6493,-81.8810,2.184,4.41,1111122 
SCCF RECON,ioos:station:SCCF:53:1,2009-05-02T07:00:00Z,26.6493,-81.8810,2.13,4.61,1111122 
SCCF RECON,ioos:station:SCCF:53:1,2009-05-02T08:00:00Z,26.6493,-81.8810,2.07,4.76,1111122 
SCCF RECON,ioos:station:SCCF:53:1,2009-05-02T09:00:00Z,26.6493,-81.8810,2.03,4.74,1111122 
SCCF RECON,ioos:station:SCCF:53:1,2009-05-02T10:00:00Z,26.6493,-81.8810,1.99,4.65,1111122 
SCCF RECON,ioos:station:SCCF:53:1,2009-05-02T11:00:00Z,26.6493,-81.8810,2.0,4.66,1111122 
SCCF RECON,ioos:station:SCCF:53:1,2009-05-02T12:00:00Z,26.6493,-81.8810,2.04,4.73,1111122 
SCCF RECON,ioos:station:SCCF:53:1,2009-05-02T13:00:00Z,26.6493,-81.8810,2.07,4.13,1111122 
SCCF RECON,ioos:station:SCCF:53:1,2009-05-02T14:00:00Z,26.6493,-81.8810,2.116,4.53,1111122 
SCCF RECON,ioos:station:SCCF:53:1,2009-05-02T15:00:00Z,26.6493,-81.8810,2.156,4.15,1111122 
SCCF RECON,ioos:station:SCCF:53:1,2009-05-02T16:00:00Z,26.6493,-81.8810,2.188,5.26,1111122 
SCCF RECON,ioos:station:SCCF:53:1,2009-05-02T17:00:00Z,26.6493,-81.8810,2.2,5.38,1111122 
SCCF RECON,ioos:station:SCCF:53:1,2009-05-02T18:00:00Z,26.6493,-81.8810,2.196,5.58,1111122 
SCCF RECON,ioos:station:SCCF:53:1,2009-05-02T19:00:00Z,26.6493,-81.8810,2.175,5.35,1111122 
SCCF RECON,ioos:station:SCCF:53:1,2009-05-02T20:00:00Z,26.6493,-81.8810,2.143,5.18,1111122 
SCCF RECON,ioos:station:SCCF:53:1,2009-05-02T21:00:00Z,26.6493,-81.8810,2.115,5.2,1111122 
SCCF RECON,ioos:station:SCCF:53:1,2009-05-02T22:00:00Z,26.6493,-81.8810,2.133,5.42,1111122 
SCCF RECON,ioos:station:SCCF:53:1,2009-05-02T23:00:00Z,26.6493,-81.8810,2.181,5.7,1111122 
SCCF RECON,ioos:station:SCCF:53:1,2009-05-03T00:00:00Z,26.6493,-81.8810,2.22,6.27,1111122 
SCCF RECON,ioos:station:SCCF:53:1,2009-05-03T01:00:00Z,26.6493,-81.8810,2.26,5.89,1111122 
SCCF RECON,ioos:station:SCCF:53:1,2009-05-03T02:00:00Z,26.6493,-81.8810,2.3,6.25,1111122 
SCCF RECON,ioos:station:SCCF:53:1,2009-05-03T03:00:00Z,26.6493,-81.8810,2.32,6.6,1111122 
SCCF RECON,ioos:station:SCCF:53:1,2009-05-03T04:00:00Z,26.6493,-81.8810,2.31,6.35,1111122 
SCCF RECON,ioos:station:SCCF:53:1,2009-05-03T05:00:00Z,26.6493,-81.8810,2.27,6.4,1111122 
SCCF RECON,ioos:station:SCCF:53:1,2009-05-03T06:00:00Z,26.6493,-81.8810,2.22,6.19,1111122 
SCCF RECON,ioos:station:SCCF:53:1,2009-05-03T07:00:00Z,26.6493,-81.8810,2.17,5.7,1111122 
SCCF RECON,ioos:station:SCCF:53:1,2009-05-03T08:00:00Z,26.6493,-81.8810,2.123,4.94,1111122 
SCCF RECON,ioos:station:SCCF:53:1,2009-05-03T09:00:00Z,26.6493,-81.8810,2.08,4.75,1111122 
SCCF RECON,ioos:station:SCCF:53:1,2009-05-03T10:00:00Z,26.6493,-81.8810,2.04,4.29,1111122 
SCCF RECON,ioos:station:SCCF:53:1,2009-05-03T11:00:00Z,26.6493,-81.8810,2.03,4.41,1111122 
SCCF RECON,ioos:station:SCCF:53:1,2009-05-03T12:00:00Z,26.6493,-81.8810,2.06,4.48,1111122 
SCCF RECON,ioos:station:SCCF:53:1,2009-05-03T13:00:00Z,26.6493,-81.8810,2.11,4.57,1111122 
SCCF RECON,ioos:station:SCCF:53:1,2009-05-03T14:00:00Z,26.6493,-81.8810,2.157,4.95,1111122 
SCCF RECON,ioos:station:SCCF:53:1,2009-05-03T15:00:00Z,26.6493,-81.8810,2.218,5.69,1111122 
SCCF RECON,ioos:station:SCCF:53:1,2009-05-03T16:00:00Z,26.6493,-81.8810,2.263,5.87,1111122 
SCCF RECON,ioos:station:SCCF:53:1,2009-05-03T17:00:00Z,26.6493,-81.8810,2.305,5.92,1111122 
SCCF RECON,ioos:station:SCCF:53:1,2009-05-03T18:00:00Z,26.6493,-81.8810,2.322,5.81,1111122 
SCCF RECON,ioos:station:SCCF:53:1,2009-05-03T19:00:00Z,26.6493,-81.8810,2.303,5.71,1111122 
SCCF RECON,ioos:station:SCCF:53:1,2009-05-03T20:00:00Z,26.6493,-81.8810,2.278,5.77,1111122 
SCCF RECON,ioos:station:SCCF:53:1,2009-05-03T21:00:00Z,26.6493,-81.8810,2.246,5.92,1111122 
SCCF RECON,ioos:station:SCCF:53:1,2009-05-03T22:00:00Z,26.6493,-81.8810,2.207,5.96,1111122 
SCCF RECON,ioos:station:SCCF:53:1,2009-05-03T23:00:00Z,26.6493,-81.8810,2.187,5.81,1111122 
SCCF RECON,ioos:station:SCCF:53:1,2009-05-04T00:00:00Z,26.6493,-81.8810,2.227,5.63,1111122 
SCCF RECON,ioos:station:SCCF:53:1,2009-05-04T01:00:00Z,26.6493,-81.8810,2.274,5.64,1111122 
SCCF RECON,ioos:station:SCCF:53:1,2009-05-04T02:00:00Z,26.6493,-81.8810,2.31,5.54,1111122 
SCCF RECON,ioos:station:SCCF:53:1,2009-05-04T03:00:00Z,26.6493,-81.8810,2.35,5.46,1111122 
SCCF RECON,ioos:station:SCCF:53:1,2009-05-04T04:00:00Z,26.6493,-81.8810,2.37,5.47,1111122 
SCCF RECON,ioos:station:SCCF:53:1,2009-05-04T05:00:00Z,26.6493,-81.8810,2.35,4.84,1111122 
SCCF RECON,ioos:station:SCCF:53:1,2009-05-04T06:00:00Z,26.6493,-81.8810,2.31,5.25,1111122 
SCCF RECON,ioos:station:SCCF:53:1,2009-05-04T07:00:00Z,26.6493,-81.8810,2.259,5.23,1111122 
SCCF RECON,ioos:station:SCCF:53:1,2009-05-04T08:00:00Z,26.6493,-81.8810,2.2,5.22,1111122 
SCCF RECON,ioos:station:SCCF:53:1,2009-05-04T09:00:00Z,26.6493,-81.8810,2.15,4.98,1111122 
SCCF RECON,ioos:station:SCCF:53:1,2009-05-04T10:00:00Z,26.6493,-81.8810,2.1,4.95,1111122 
SCCF RECON,ioos:station:SCCF:53:1,2009-05-04T11:00:00Z,26.6493,-81.8810,2.07,4.91,1111122 
SCCF RECON,ioos:station:SCCF:53:1,2009-05-04T12:00:00Z,26.6493,-81.8810,2.05,4.83,1111122 
SCCF RECON,ioos:station:SCCF:53:1,2009-05-04T13:00:00Z,26.6493,-81.8810,2.081,4.87,1111122 
SCCF RECON,ioos:station:SCCF:53:1,2009-05-04T14:00:00Z,26.6493,-81.8810,2.12,4.79,1111122 
SCCF RECON,ioos:station:SCCF:53:1,2009-05-04T15:00:00Z,26.6493,-81.8810,2.17,4.89,1111122 
SCCF RECON,ioos:station:SCCF:53:1,2009-05-04T16:00:00Z,26.6493,-81.8810,2.221,5.45,1111122 
SCCF RECON,ioos:station:SCCF:53:1,2009-05-04T17:00:00Z,26.6493,-81.8810,2.271,5.68,1111122 
SCCF RECON,ioos:station:SCCF:53:1,2009-05-04T18:00:00Z,26.6493,-81.8810,2.298,5.61,1111122 
SCCF RECON,ioos:station:SCCF:53:1,2009-05-04T19:00:00Z,26.6493,-81.8810,2.303,5.75,1111122 
SCCF RECON,ioos:station:SCCF:53:1,2009-05-04T20:00:00Z,26.6493,-81.8810,2.258,5.62,1111122 
SCCF RECON,ioos:station:SCCF:53:1,2009-05-04T21:00:00Z,26.6493,-81.8810,2.209,5.94,1111122 
SCCF RECON,ioos:station:SCCF:53:1,2009-05-04T22:00:00Z,26.6493,-81.8810,2.161,5.93,1111122 
SCCF RECON,ioos:station:SCCF:53:1,2009-05-04T23:00:00Z,26.6493,-81.8810,2.115,5.5,1111122 
SCCF RECON,ioos:station:SCCF:53:1,2009-05-05T00:00:00Z,26.6493,-81.8810,2.084,5.6,1111122 
SCCF RECON,ioos:station:SCCF:53:1,2009-05-05T01:00:00Z,26.6493,-81.8810,2.091,5.38,1111122 
SCCF RECON,ioos:station:SCCF:53:1,2009-05-05T02:00:00Z,26.6493,-81.8810,2.12,5.28,1111122 
SCCF RECON,ioos:station:SCCF:53:1,2009-05-05T03:00:00Z,26.6493,-81.8810,2.15,5.11,1111122 
SCCF RECON,ioos:station:SCCF:53:1,2009-05-05T04:00:00Z,26.6493,-81.8810,2.194,5.56,1111122 
SCCF RECON,ioos:station:SCCF:53:1,2009-05-05T05:00:00Z,26.6493,-81.8810,2.23,5.59,1111122 
SCCF RECON,ioos:station:SCCF:53:1,2009-05-05T06:00:00Z,26.6493,-81.8810,2.25,5.51,1111122 
SCCF RECON,ioos:station:SCCF:53:1,2009-05-05T07:00:00Z,26.6493,-81.8810,2.25,5.33,1111122 
SCCF RECON,ioos:station:SCCF:53:1,2009-05-05T08:00:00Z,26.6493,-81.8810,2.201,5.26,1111122 
SCCF RECON,ioos:station:SCCF:53:1,2009-05-05T09:00:00Z,26.6493,-81.8810,2.16,5.19,1111122 
SCCF RECON,ioos:station:SCCF:53:1,2009-05-05T10:00:00Z,26.6493,-81.8810,2.12,5.07,1111122 
SCCF RECON,ioos:station:SCCF:53:1,2009-05-05T11:00:00Z,26.6493,-81.8810,2.08,4.95,1111122 
SCCF RECON,ioos:station:SCCF:53:1,2009-05-05T12:00:00Z,26.6493,-81.8810,2.06,4.8,1111122 
SCCF RECON,ioos:station:SCCF:53:1,2009-05-05T13:00:00Z,26.6493,-81.8810,2.06,4.83,1111122 
SCCF RECON,ioos:station:SCCF:53:1,2009-05-05T14:00:00Z,26.6493,-81.8810,2.11,4.87,1111122 
SCCF RECON,ioos:station:SCCF:53:1,2009-05-05T15:00:00Z,26.6493,-81.8810,2.16,4.89,1111122 
SCCF RECON,ioos:station:SCCF:53:1,2009-05-05T16:00:00Z,26.6493,-81.8810,2.213,5.51,1111122 
SCCF RECON,ioos:station:SCCF:53:1,2009-05-05T17:00:00Z,26.6493,-81.8810,2.268,5.84,1111122 
SCCF RECON,ioos:station:SCCF:53:1,2009-05-05T18:00:00Z,26.6493,-81.8810,2.308,6.04,1111122 
SCCF RECON,ioos:station:SCCF:53:1,2009-05-05T19:00:00Z,26.6493,-81.8810,2.307,6.78,1111122 
SCCF RECON,ioos:station:SCCF:53:1,2009-05-05T20:00:00Z,26.6493,-81.8810,2.263,6.43,1111122 
SCCF RECON,ioos:station:SCCF:53:1,2009-05-05T21:00:00Z,26.6493,-81.8810,2.202,6.68,1111122 
SCCF RECON,ioos:station:SCCF:53:1,2009-05-05T22:00:00Z,26.6493,-81.8810,2.153,6.36,1111122 
SCCF RECON,ioos:station:SCCF:53:1,2009-05-05T23:00:00Z,26.6493,-81.8810,2.104,6.07,1111122 
SCCF RECON,ioos:station:SCCF:53:1,2009-05-06T00:00:00Z,26.6493,-81.8810,2.067,5.98,1111122 
SCCF RECON,ioos:station:SCCF:53:1,2009-05-06T01:00:00Z,26.6493,-81.8810,2.04,6.02,1111122 
SCCF RECON,ioos:station:SCCF:53:1,2009-05-06T02:00:00Z,26.6493,-81.8810,2.048,6.27,1111122 
SCCF RECON,ioos:station:SCCF:53:1,2009-05-06T03:00:00Z,26.6493,-81.8810,2.09,5.65,1111122 
SCCF RECON,ioos:station:SCCF:53:1,2009-05-06T04:00:00Z,26.6493,-81.8810,2.13,5.68,1111122 
SCCF RECON,ioos:station:SCCF:53:1,2009-05-06T05:00:00Z,26.6493,-81.8810,2.18,5.84,1111122 
SCCF RECON,ioos:station:SCCF:53:1,2009-05-06T06:00:00Z,26.6493,-81.8810,2.223,5.64,1111122 
SCCF RECON,ioos:station:SCCF:53:1,2009-05-06T07:00:00Z,26.6493,-81.8810,2.24,5.74,1111122 
SCCF RECON,ioos:station:SCCF:53:1,2009-05-06T08:00:00Z,26.6493,-81.8810,2.22,5.65,1111122 
SCCF RECON,ioos:station:SCCF:53:1,2009-05-06T09:00:00Z,26.6493,-81.8810,2.17,5.4,1111122 
SCCF RECON,ioos:station:SCCF:53:1,2009-05-06T10:00:00Z,26.6493,-81.8810,2.13,5.4,1111122 
SCCF RECON,ioos:station:SCCF:53:1,2009-05-06T11:00:00Z,26.6493,-81.8810,2.09,5.28,1111122 
SCCF RECON,ioos:station:SCCF:53:1,2009-05-06T12:00:00Z,26.6493,-81.8810,2.059,5.03,1111122 
SCCF RECON,ioos:station:SCCF:53:1,2009-05-06T13:00:00Z,26.6493,-81.8810,2.04,4.94,1111122 
SCCF RECON,ioos:station:SCCF:53:1,2009-05-06T14:00:00Z,26.6493,-81.8810,2.087,5.05,1111122 
SCCF RECON,ioos:station:SCCF:53:1,2009-05-06T15:00:00Z,26.6493,-81.8810,2.135,5.05,1111122 
SCCF RECON,ioos:station:SCCF:53:1,2009-05-06T16:00:00Z,26.6493,-81.8810,2.181,5.46,1111122 
SCCF RECON,ioos:station:SCCF:53:1,2009-05-06T17:00:00Z,26.6493,-81.8810,2.24,5.63,1111122 
SCCF RECON,ioos:station:SCCF:53:1,2009-05-06T18:00:00Z,26.6493,-81.8810,2.29,6.26,1111122 
SCCF RECON,ioos:station:SCCF:53:1,2009-05-06T19:00:00Z,26.6493,-81.8810,2.309,6.21,1111122 
SCCF RECON,ioos:station:SCCF:53:1,2009-05-06T20:00:00Z,26.6493,-81.8810,2.284,6.28,1111122 
SCCF RECON,ioos:station:SCCF:53:1,2009-05-06T21:00:00Z,26.6493,-81.8810,2.231,6.58,1111122 
SCCF RECON,ioos:station:SCCF:53:1,2009-05-06T22:00:00Z,26.6493,-81.8810,2.18,6.99,1111122 
SCCF RECON,ioos:station:SCCF:53:1,2009-05-06T23:00:00Z,26.6493,-81.8810,2.128,6.74,1111122 
SCCF RECON,ioos:station:SCCF:53:1,2009-05-07T00:00:00Z,26.6493,-81.8810,2.08,6.31,1111122 
SCCF RECON,ioos:station:SCCF:53:1,2009-05-07T01:00:00Z,26.6493,-81.8810,2.04,6.18,1111122 
SCCF RECON,ioos:station:SCCF:53:1,2009-05-07T02:00:00Z,26.6493,-81.8810,2.003,5.92,1111122 
SCCF RECON,ioos:station:SCCF:53:1,2009-05-07T03:00:00Z,26.6493,-81.8810,2.01,6.13,1111122 
SCCF RECON,ioos:station:SCCF:53:1,2009-05-07T04:00:00Z,26.6493,-81.8810,2.05,5.14,1111122 
SCCF RECON,ioos:station:SCCF:53:1,2009-05-07T05:00:00Z,26.6493,-81.8810,2.09,5.56,1111122 
SCCF RECON,ioos:station:SCCF:53:1,2009-05-07T06:00:00Z,26.6493,-81.8810,2.13,5.65,1111122 
SCCF RECON,ioos:station:SCCF:53:1,2009-05-07T07:00:00Z,26.6493,-81.8810,2.17,5.63,1111122 
SCCF RECON,ioos:station:SCCF:53:1,2009-05-07T08:00:00Z,26.6493,-81.8810,2.18,5.62,1111122 
SCCF RECON,ioos:station:SCCF:53:1,2009-05-07T09:00:00Z,26.6493,-81.8810,2.17,5.73,1111122 
SCCF RECON,ioos:station:SCCF:53:1,2009-05-07T10:00:00Z,26.6493,-81.8810,2.14,5.47,1111122 
SCCF RECON,ioos:station:SCCF:53:1,2009-05-07T11:00:00Z,26.6493,-81.8810,2.1,5.52,1111122 
SCCF RECON,ioos:station:SCCF:53:1,2009-05-07T12:00:00Z,26.6493,-81.8810,2.07,5.22,1111122 
SCCF RECON,ioos:station:SCCF:53:1,2009-05-07T13:00:00Z,26.6493,-81.8810,2.046,5.06,1111122 
SCCF RECON,ioos:station:SCCF:53:1,2009-05-07T14:00:00Z,26.6493,-81.8810,2.068,5.06,1111122 
SCCF RECON,ioos:station:SCCF:53:1,2009-05-07T15:00:00Z,26.6493,-81.8810,2.127,5.4,1111122 
SCCF RECON,ioos:station:SCCF:53:1,2009-05-07T16:00:00Z,26.6493,-81.8810,2.17,5.62,1111122 
SCCF RECON,ioos:station:SCCF:53:1,2009-05-07T17:00:00Z,26.6493,-81.8810,2.211,6.01,1111122 
SCCF RECON,ioos:station:SCCF:53:1,2009-05-07T18:00:00Z,26.6493,-81.8810,2.268,6.09,1111122 
SCCF RECON,ioos:station:SCCF:53:1,2009-05-07T19:00:00Z,26.6493,-81.8810,2.29,6.46,1111122 
SCCF RECON,ioos:station:SCCF:53:1,2009-05-07T20:00:00Z,26.6493,-81.8810,2.28,6.37,1111122 
SCCF RECON,ioos:station:SCCF:53:1,2009-05-07T21:00:00Z,26.6493,-81.8810,2.228,6.67,1111122 
SCCF RECON,ioos:station:SCCF:53:1,2009-05-07T22:00:00Z,26.6493,-81.8810,2.176,6.69,1111122 
SCCF RECON,ioos:station:SCCF:53:1,2009-05-07T23:00:00Z,26.6493,-81.8810,2.127,6.35,1111122 
SCCF RECON,ioos:station:SCCF:53:1,2009-05-08T00:00:00Z,26.6493,-81.8810,2.07,6.29,1111122 
SCCF RECON,ioos:station:SCCF:53:1,2009-05-08T01:00:00Z,26.6493,-81.8810,2.022,6.02,1111122 
SCCF RECON,ioos:station:SCCF:53:1,2009-05-08T02:00:00Z,26.6493,-81.8810,1.98,6.06,1111122 
SCCF RECON,ioos:station:SCCF:53:1,2009-05-08T03:00:00Z,26.6493,-81.8810,1.94,6.05,1111122 
SCCF RECON,ioos:station:SCCF:53:1,2009-05-08T04:00:00Z,26.6493,-81.8810,1.95,5.96,1111122 
SCCF RECON,ioos:station:SCCF:53:1,2009-05-08T05:00:00Z,26.6493,-81.8810,1.98,5.65,1111122 
SCCF RECON,ioos:station:SCCF:53:1,2009-05-08T06:00:00Z,26.6493,-81.8810,2.02,5.79,1111122 
SCCF RECON,ioos:station:SCCF:53:1,2009-05-08T07:00:00Z,26.6493,-81.8810,2.061,5.45,1111122 
SCCF RECON,ioos:station:SCCF:53:1,2009-05-08T08:00:00Z,26.6493,-81.8810,2.11,5.5,1111122 
SCCF RECON,ioos:station:SCCF:53:1,2009-05-08T09:00:00Z,26.6493,-81.8810,2.13,5.6,1111122 
SCCF RECON,ioos:station:SCCF:53:1,2009-05-08T10:00:00Z,26.6493,-81.8810,2.11,5.55,1111122 
SCCF RECON,ioos:station:SCCF:53:1,2009-05-08T11:00:00Z,26.6493,-81.8810,2.08,5.49,1111122 
SCCF RECON,ioos:station:SCCF:53:1,2009-05-08T12:00:00Z,26.6493,-81.8810,2.06,5.18,1111122 
SCCF RECON,ioos:station:SCCF:53:1,2009-05-08T13:00:00Z,26.6493,-81.8810,2.035,4.92,1111122 
SCCF RECON,ioos:station:SCCF:53:1,2009-05-08T14:00:00Z,26.6493,-81.8810,2.037,5.09,1111122 
SCCF RECON,ioos:station:SCCF:53:1,2009-05-08T15:00:00Z,26.6493,-81.8810,2.094,5.16,1111122 
SCCF RECON,ioos:station:SCCF:53:1,2009-05-08T16:00:00Z,26.6493,-81.8810,2.146,5.38,1111122 
SCCF RECON,ioos:station:SCCF:53:1,2009-05-08T17:00:00Z,26.6493,-81.8810,2.2,5.72,1111122 
SCCF RECON,ioos:station:SCCF:53:1,2009-05-08T18:00:00Z,26.6493,-81.8810,2.264,5.64,1111122 
SCCF RECON,ioos:station:SCCF:53:1,2009-05-08T19:00:00Z,26.6493,-81.8810,2.319,5.57,1111122 
SCCF RECON,ioos:station:SCCF:53:1,2009-05-08T20:00:00Z,26.6493,-81.8810,2.342,5.67,1111122 
SCCF RECON,ioos:station:SCCF:53:1,2009-05-08T21:00:00Z,26.6493,-81.8810,2.309,5.74,1111122 
SCCF RECON,ioos:station:SCCF:53:1,2009-05-08T22:00:00Z,26.6493,-81.8810,2.254,5.86,1111122 
SCCF RECON,ioos:station:SCCF:53:1,2009-05-08T23:00:00Z,26.6493,-81.8810,2.201,6.12,1111122 
SCCF RECON,ioos:station:SCCF:53:1,2009-05-09T00:00:00Z,26.6493,-81.8810,2.148,5.69,1111122 
SCCF RECON,ioos:station:SCCF:53:1,2009-05-09T01:00:00Z,26.6493,-81.8810,2.097,5.77,1111122 
SCCF RECON,ioos:station:SCCF:53:1,2009-05-09T02:00:00Z,26.6493,-81.8810,2.05,5.78,1111122 
SCCF RECON,ioos:station:SCCF:53:1,2009-05-09T03:00:00Z,26.6493,-81.8810,2.0,5.68,1111122 
SCCF RECON,ioos:station:SCCF:53:1,2009-05-09T04:00:00Z,26.6493,-81.8810,1.97,5.73,1111122 
SCCF RECON,ioos:station:SCCF:53:1,2009-05-09T05:00:00Z,26.6493,-81.8810,1.989,5.46,1111122 
SCCF RECON,ioos:station:SCCF:53:1,2009-05-09T06:00:00Z,26.6493,-81.8810,2.03,5.02,1111122 
SCCF RECON,ioos:station:SCCF:53:1,2009-05-09T07:00:00Z,26.6493,-81.8810,2.07,5.31,1111122 
SCCF RECON,ioos:station:SCCF:53:1,2009-05-09T08:00:00Z,26.6493,-81.8810,2.11,5.1,1111122 
SCCF RECON,ioos:station:SCCF:53:1,2009-05-09T09:00:00Z,26.6493,-81.8810,2.15,5.0,1111122 
SCCF RECON,ioos:station:SCCF:53:1,2009-05-09T10:00:00Z,26.6493,-81.8810,2.17,4.9,1111122 
SCCF RECON,ioos:station:SCCF:53:1,2009-05-09T11:00:00Z,26.6493,-81.8810,2.18,4.93,1111122 
SCCF RECON,ioos:station:SCCF:53:1,2009-05-09T12:00:00Z,26.6493,-81.8810,2.163,4.62,1111122 
SCCF RECON,ioos:station:SCCF:53:1,2009-05-09T13:00:00Z,26.6493,-81.8810,2.143,5.01,1111122 
SCCF RECON,ioos:station:SCCF:53:1,2009-05-09T14:00:00Z,26.6493,-81.8810,2.142,4.88,1111122 
SCCF RECON,ioos:station:SCCF:53:1,2009-05-09T15:00:00Z,26.6493,-81.8810,2.17,4.8,1111122 
SCCF RECON,ioos:station:SCCF:53:1,2009-05-09T16:00:00Z,26.6493,-81.8810,2.23,4.73,1111122 
SCCF RECON,ioos:station:SCCF:53:1,2009-05-09T17:00:00Z,26.6493,-81.8810,2.28,4.84,1111122 
SCCF RECON,ioos:station:SCCF:53:1,2009-05-09T18:00:00Z,26.6493,-81.8810,2.34,5.33,1111122 
SCCF RECON,ioos:station:SCCF:53:1,2009-05-09T19:00:00Z,26.6493,-81.8810,2.388,5.5,1111122 
SCCF RECON,ioos:station:SCCF:53:1,2009-05-09T20:00:00Z,26.6493,-81.8810,2.4,5.38,1111122 
SCCF RECON,ioos:station:SCCF:53:1,2009-05-09T21:00:00Z,26.6493,-81.8810,2.375,5.56,1111122 
SCCF RECON,ioos:station:SCCF:53:1,2009-05-09T22:00:00Z,26.6493,-81.8810,2.32,5.4,1111122 
SCCF RECON,ioos:station:SCCF:53:1,2009-05-09T23:00:00Z,26.6493,-81.8810,2.264,5.96,1111122 
SCCF RECON,ioos:station:SCCF:53:1,2009-05-10T00:00:00Z,26.6493,-81.8810,2.2,5.4,1111122 
SCCF RECON,ioos:station:SCCF:53:1,2009-05-10T01:00:00Z,26.6493,-81.8810,2.149,5.46,1111122 
SCCF RECON,ioos:station:SCCF:53:1,2009-05-10T02:00:00Z,26.6493,-81.8810,2.1,5.44,1111122 
SCCF RECON,ioos:station:SCCF:53:1,2009-05-10T03:00:00Z,26.6493,-81.8810,2.05,5.72,1111122 
SCCF RECON,ioos:station:SCCF:53:1,2009-05-10T04:00:00Z,26.6493,-81.8810,2.0,5.79,1111122 
SCCF RECON,ioos:station:SCCF:53:1,2009-05-10T05:00:00Z,26.6493,-81.8810,1.97,5.72,1111122 
SCCF RECON,ioos:station:SCCF:53:1,2009-05-10T06:00:00Z,26.6493,-81.8810,1.98,4.97,1111122 
SCCF RECON,ioos:station:SCCF:53:1,2009-05-10T07:00:00Z,26.6493,-81.8810,2.03,4.77,1111122 
SCCF RECON,ioos:station:SCCF:53:1,2009-05-10T08:00:00Z,26.6493,-81.8810,2.07,4.65,1111122 
SCCF RECON,ioos:station:SCCF:53:1,2009-05-10T09:00:00Z,26.6493,-81.8810,2.103,4.63,1111122 
SCCF RECON,ioos:station:SCCF:53:1,2009-05-10T10:00:00Z,26.6493,-81.8810,2.13,4.6,1111122 
SCCF RECON,ioos:station:SCCF:53:1,2009-05-10T11:00:00Z,26.6493,-81.8810,2.13,4.56,1111122 
SCCF RECON,ioos:station:SCCF:53:1,2009-05-10T12:00:00Z,26.6493,-81.8810,2.11,4.56,1111122 
SCCF RECON,ioos:station:SCCF:53:1,2009-05-10T13:00:00Z,26.6493,-81.8810,2.09,4.23,1111122 
SCCF RECON,ioos:station:SCCF:53:1,2009-05-10T14:00:00Z,26.6493,-81.8810,2.06,4.42,1111122 
SCCF RECON,ioos:station:SCCF:53:1,2009-05-10T15:00:00Z,26.6493,-81.8810,2.045,4.3,1111122 
SCCF RECON,ioos:station:SCCF:53:1,2009-05-10T16:00:00Z,26.6493,-81.8810,2.088,4.28,1111122 
SCCF RECON,ioos:station:SCCF:53:1,2009-05-10T17:00:00Z,26.6493,-81.8810,2.141,4.5,1111122 
SCCF RECON,ioos:station:SCCF:53:1,2009-05-10T18:00:00Z,26.6493,-81.8810,2.186,4.98,1111122 
SCCF RECON,ioos:station:SCCF:53:1,2009-05-10T19:00:00Z,26.6493,-81.8810,2.248,5.61,1111122 
SCCF RECON,ioos:station:SCCF:53:1,2009-05-10T20:00:00Z,26.6493,-81.8810,2.29,5.79,1111122 
SCCF RECON,ioos:station:SCCF:53:1,2009-05-10T21:00:00Z,26.6493,-81.8810,2.309,5.98,1111122 
SCCF RECON,ioos:station:SCCF:53:1,2009-05-10T22:00:00Z,26.6493,-81.8810,2.271,6.36,1111122 
SCCF RECON,ioos:station:SCCF:53:1,2009-05-10T23:00:00Z,26.6493,-81.8810,2.22,6.58,1111122 
SCCF RECON,ioos:station:SCCF:53:1,2009-05-11T00:00:00Z,26.6493,-81.8810,2.17,6.29,1111122 
SCCF RECON,ioos:station:SCCF:53:1,2009-05-11T01:00:00Z,26.6493,-81.8810,2.12,5.83,1111122 
SCCF RECON,ioos:station:SCCF:53:1,2009-05-11T02:00:00Z,26.6493,-81.8810,2.07,5.88,1111122 
SCCF RECON,ioos:station:SCCF:53:1,2009-05-11T03:00:00Z,26.6493,-81.8810,2.02,5.67,1111122 
SCCF RECON,ioos:station:SCCF:53:1,2009-05-11T04:00:00Z,26.6493,-81.8810,1.97,5.54,1111122 
SCCF RECON,ioos:station:SCCF:53:1,2009-05-11T05:00:00Z,26.6493,-81.8810,1.93,5.58,1111122 
SCCF RECON,ioos:station:SCCF:53:1,2009-05-11T06:00:00Z,26.6493,-81.8810,1.93,5.32,1111122 
SCCF RECON,ioos:station:SCCF:53:1,2009-05-11T07:00:00Z,26.6493,-81.8810,1.96,5.1,1111122 
SCCF RECON,ioos:station:SCCF:53:1,2009-05-11T08:00:00Z,26.6493,-81.8810,2.0,5.12,1111122 
SCCF RECON,ioos:station:SCCF:53:1,2009-05-11T09:00:00Z,26.6493,-81.8810,2.04,4.57,1111122 
SCCF RECON,ioos:station:SCCF:53:1,2009-05-11T10:00:00Z,26.6493,-81.8810,2.08,4.62,1111122 
SCCF RECON,ioos:station:SCCF:53:1,2009-05-11T11:00:00Z,26.6493,-81.8810,2.11,4.51,1111122 
SCCF RECON,ioos:station:SCCF:53:1,2009-05-11T12:00:00Z,26.6493,-81.8810,2.11,3.87,1111122 
SCCF RECON,ioos:station:SCCF:53:1,2009-05-11T13:00:00Z,26.6493,-81.8810,2.08,4.23,1111122 
SCCF RECON,ioos:station:SCCF:53:1,2009-05-11T14:00:00Z,26.6493,-81.8810,2.05,4.57,1111122 
SCCF RECON,ioos:station:SCCF:53:1,2009-05-11T15:00:00Z,26.6493,-81.8810,2.05,4.22,1111122 
SCCF RECON,ioos:station:SCCF:53:1,2009-05-11T16:00:00Z,26.6493,-81.8810,2.093,4.39,1111122 
SCCF RECON,ioos:station:SCCF:53:1,2009-05-11T17:00:00Z,26.6493,-81.8810,2.15,4.58,1111122 
SCCF RECON,ioos:station:SCCF:53:1,2009-05-11T18:00:00Z,26.6493,-81.8810,2.195,5.38,1111122 
SCCF RECON,ioos:station:SCCF:53:1,2009-05-11T19:00:00Z,26.6493,-81.8810,2.25,6.01,1111122 
SCCF RECON,ioos:station:SCCF:53:1,2009-05-11T20:00:00Z,26.6493,-81.8810,2.292,6.3,1111122 